Regional Weather Roundup
Issued by NWS

Home | Current Version | Previous Version | Text Only | Print | Product List | Glossary Off
Versions: 1 2 3 4 5 6 7 8 9 10 11 12 13 14 15 16 17 18 19 20 21 22 23 24 25 26 27 28 29 30 31 32 33 34 35 36 37 38 39 40 41 42 43 44 45 46 47 48 49 50

125
ASUS43 KFSD 250510
RWRSD

WEATHER ROUNDUP FOR SOUTH DAKOTA
NATIONAL WEATHER SERVICE SIOUX FALLS SD
1100 PM CST FRI FEB 24 2017

NOTE: "FAIR" INDICATES FEW OR NO CLOUDS BELOW 12,000 FEET WITH NO
SIGNIFICANT WEATHER AND/OR OBSTRUCTIONS TO VISIBILITY.


SDZ001>005-009-010-012>017-250600-
NORTHWEST AND NORTH CENTRAL SOUTH DAKOTA

CITY           SKY/WX    TMP DP  RH WIND       PRES   REMARKS
BUFFALO          N/A     24  14  65 S5        29.95F WCI  18
FAITH            N/A     22  17  81 S8        30.05F WCI  12
MOBRIDGE       CLOUDY    21  14  74 CALM      30.08F
$$

SDZ012>016-024>037-041>051-057-063-072>074-250600-
SOUTHWEST AND SOUTH CENTRAL SOUTH DAKOTA

CITY           SKY/WX    TMP DP  RH WIND       PRES   REMARKS
RAPID CTY ARPT CLOUDY    15  12  88 SW3       30.04F
PIERRE         CLOUDY    20  12  71 E5        30.11F WCI  13
CUSTER         CLOUDY    10   5  80 W5        29.92S WCI   2
ELLSWORTH AFB  CLOUDY    17  14  88 S3        30.02F
PHILIP         CLOUDY    22  17  81 S3        30.10F
PINE RIDGE     CLOUDY     9   6  88 W3        30.07S
SPEARFISH      MOCLDY    23  14  68 CALM      29.99F
WINNER         FAIR      19  12  74 N7        30.12F WCI  10
$$

SDZ004>011-016>023-039-040-250600-
NORTHEAST SOUTH DAKOTA

CITY           SKY/WX    TMP DP  RH WIND       PRES   REMARKS
ABERDEEN       CLEAR     17  12  80 NW7       30.11F WCI   8
WATERTOWN      CLEAR     18  13  80 N14       30.03F WCI   4
BROOKINGS      MOCLDY    20  13  74 N17G28    30.03S WCI   5
SISSETON         N/A     18  15  88 N9        30.07F WCI   7
$$

SDZ017-020-022-023-036>040-048>070-250600-
SOUTHEAST SOUTH DAKOTA

CITY           SKY/WX    TMP DP  RH WIND       PRES   REMARKS
SIOUX FALLS    CLOUDY    20  14  77 N15       30.04S WCI   6
HURON          CLEAR     20  16  84 NW12      30.11S WCI   8
CHAMBERLAIN    CLEAR     24  17  74 N6        30.13F WCI  17
MITCHELL       CLEAR     22  17  81 NW13      30.12R WCI  10
YANKTON        CLEAR     21  12  68 NW17      30.10R WCI   7
$$

ABBREVIATIONS USED IN REMARKS
   TC - TEMPERATURE IN CELSIUS
  WCI - WIND CHILL INDEX
   HX - HEAT INDEX
  VSB - VISIBILITY





USA.gov is the U.S. government's official web portal to all federal, state and local government web resources and services.